H1 CPF 2 NER 2021 7 5 9 186 01 glonass121 H2 1000702 9121 36401 2021 7 5 0 0 0 2021 7 8 23 45 0 900 1 1 0 0 0 1 H9 10 0 59400 0.00000 0 5491448.987 20695711.691 -13811355.399 10 0 59400 900.00000 0 5673730.962 22232875.251 -11064681.419 10 0 59400 1800.00000 0 5947457.788 23401526.601 -8102210.629 10 0 59400 2700.00000 0 6258199.346 24175125.246 -4981616.526 10 0 59400 3600.00000 0 6548358.499 24540536.159 -1763746.988 10 0 59400 4500.00000 0 6759844.914 24498494.365 1488577.039 10 0 59400 5400.00000 0 6836781.841 24063498.621 4711808.168 10 0 59400 6300.00000 0 6728128.186 23263137.412 7842938.034 10 0 59400 7200.00000 0 6390101.419 22136875.561 10820754.217 10 0 59400 8100.00000 0 5788295.304 20734353.465 13587061.401 10 0 59400 9000.00000 0 4899399.776 19113272.353 16087840.346 10 0 59400 9900.00000 0 3712447.802 17336957.074 18274319.720 10 0 59400 10800.00000 0 2229534.918 15471701.690 20103938.287 10 0 59400 11700.00000 0 465980.330 13584012.207 21541177.713 10 0 59400 12600.00000 0 -1550077.057 11737864.613 22558249.515 10 0 59400 13500.00000 0 -3778629.938 9992094.876 23135623.367 10 0 59400 14400.00000 0 -6169260.011 8398030.973 23262387.680 10 0 59400 15300.00000 0 -8663038.873 6997465.790 22936437.139 10 0 59400 16200.00000 0 -11194791.424 5821054.298 22164485.639 10 0 59400 17100.00000 0 -13695626.128 4887199.680 20961906.572 10 0 59400 18000.00000 0 -16095625.792 4201471.974 19352405.800 10 0 59400 18900.00000 0 -18326586.719 3756580.004 17367535.663 10 0 59400 19800.00000 0 -20324692.816 3532894.130 15046061.181 10 0 59400 20700.00000 0 -22033014.542 3499494.496 12433192.130 10 0 59400 21600.00000 0 -23403730.626 3615697.821 9579696.783 10 0 59400 22500.00000 0 -24399982.363 3832996.385 6540914.899 10 0 59400 23400.00000 0 -24997285.771 4097326.306 3375689.179 10 0 59400 24300.00000 0 -25184445.384 4351569.156 145235.405 10 0 59400 25200.00000 0 -24963933.932 4538181.875 -3088027.723 10 0 59400 26100.00000 0 -24351723.967 4601845.187 -6261667.483 10 0 59400 27000.00000 0 -23376579.814 4492020.352 -9314423.273 10 0 59400 27900.00000 0 -22078839.957 4165308.132 -12187368.748 10 0 59400 28800.00000 0 -20508740.488 3587512.114 -14825029.191 10 0 59400 29700.00000 0 -18724348.663 2735320.665 -17176434.402 10 0 59400 30600.00000 0 -16789191.159 1597537.167 -19196088.474 10 0 59400 31500.00000 0 -14769673.946 175806.560 -20844839.179 10 0 59400 32400.00000 0 -12732399.017 -1515193.679 -22090631.372 10 0 59400 33300.00000 0 -10741487.545 -3448108.326 -22909130.539 10 0 59400 34200.00000 0 -8856019.017 -5583793.135 -23284204.572 10 0 59400 35100.00000 0 -7127691.549 -7872703.942 -23208253.971 10 0 59400 36000.00000 0 -5598800.033 -10256732.080 -22682383.013 10 0 59400 36900.00000 0 -4300616.373 -12671413.225 -21716406.832 10 0 59400 37800.00000 0 -3252240.057 -15048420.978 -20328692.142 10 0 59400 38700.00000 0 -2459968.326 -17318243.836 -18545832.142 10 0 59400 39600.00000 0 -1917214.076 -19412935.466 -16402159.316 10 0 59400 40500.00000 0 -1604976.768 -21268824.020 -13939103.056 10 0 59400 41400.00000 0 -1492848.343 -22829066.757 -11204402.354 10 0 59400 42300.00000 0 -1540513.155 -24045941.411 -8251187.328 10 0 59400 43200.00000 0 -1699679.376 -24882776.092 -5136946.487 10 0 59400 44100.00000 0 -1916360.092 -25315433.978 -1922399.762 10 0 59400 45000.00000 0 -2133406.565 -25333287.650 1329699.922 10 0 59400 45900.00000 0 -2293184.387 -24939639.686 4555811.647 10 0 59400 46800.00000 0 -2340276.426 -24151570.013 7692871.644 10 0 59400 47700.00000 0 -2224094.819 -22999215.567 10679551.248 10 0 59400 48600.00000 0 -1901287.938 -21524512.705 13457480.393 10 0 59400 49500.00000 0 -1337837.166 -19779456.394 15972410.191 10 0 59400 50400.00000 0 -510752.030 -17823951.349 18175289.552 10 0 59400 51300.00000 0 590710.000 -15723347.895 20023233.192 10 0 59400 52200.00000 0 1964351.734 -13545768.633 21480361.191 10 0 59400 53100.00000 0 3594901.931 -11359340.614 22518493.398 10 0 59400 54000.00000 0 5454443.558 -9229450.865 23117685.780 10 0 59400 54900.00000 0 7503385.584 -7216141.292 23266599.384 10 0 59400 55800.00000 0 9691935.956 -5371752.066 22962696.431 10 0 59400 56700.00000 0 11962012.475 -3738911.033 22212261.818 10 0 59400 57600.00000 0 14249510.208 -2348951.161 21030251.755 10 0 59400 58500.00000 0 16486829.525 -1220819.348 19439974.764 10 0 59400 59400.00000 0 18605558.716 -360518.741 17472613.210 10 0 59400 60300.00000 0 20539199.429 238895.937 15166596.424 10 0 59400 61200.00000 0 22225821.937 596773.558 12566838.957 10 0 59400 62100.00000 0 23610540.996 743798.561 9723859.680 10 0 59400 63000.00000 0 24647710.953 720447.418 6692799.250 10 0 59400 63900.00000 0 25302750.740 575036.437 3532355.070 10 0 59400 64800.00000 0 25553525.030 361444.217 303653.943 10 0 59400 65700.00000 0 25391226.138 136604.883 -2930916.613 10 0 59400 66600.00000 0 24820721.804 -42122.860 -6108896.829 10 0 59400 67500.00000 0 23860355.712 -119601.144 -9168941.441 10 0 59400 68400.00000 0 22541209.803 -45462.874 -12051983.475 10 0 59400 69300.00000 0 20905859.119 223539.606 -14702354.291 10 0 59400 70200.00000 0 19006670.320 721484.591 -17068840.068 10 0 59400 71100.00000 0 16903713.281 1471615.208 -19105656.119 10 0 59400 72000.00000 0 14662370.756 2485127.475 -20773321.607 10 0 59400 72900.00000 0 12350743.274 3760463.841 -22039418.993 10 0 59400 73800.00000 0 10036954.696 5283143.406 -22879224.280 10 0 59400 74700.00000 0 7786468.294 7026138.412 -23276195.964 10 0 59400 75600.00000 0 5659522.997 8950784.422 -23222312.838 10 0 59400 76500.00000 0 3708795.099 11008189.829 -22718253.035 10 0 59400 77400.00000 0 1977382.176 13141089.532 -21773409.151 10 0 59400 78300.00000 0 497193.292 15286068.946 -20405737.053 10 0 59400 79200.00000 0 -712186.573 17376068.499 -18641438.755 10 0 59400 80100.00000 0 -1644108.995 19343066.061 -16514482.941 10 0 59400 81000.00000 0 -2304924.219 21120826.301 -14065969.897 10 0 59400 81900.00000 0 -2713488.565 22647601.896 -11343350.950 10 0 59400 82800.00000 0 -2900136.310 23868672.226 -8399515.996 10 0 59400 83700.00000 0 -2905158.413 24738611.088 -5291765.906 10 0 59400 84600.00000 0 -2776852.063 25223185.474 -2080689.644 10 0 59400 85500.00000 0 -2569224.104 25300802.618 1171031.178 10 0 59401 0.00000 0 -2339447.063 24963441.614 4399865.531 10 0 59401 900.00000 0 -2145178.193 24217027.636 7542697.944 10 0 59401 1800.00000 0 -2041857.179 23081232.378 10538087.024 10 0 59401 2700.00000 0 -2080101.908 21588706.756 13327491.413 10 0 59401 3600.00000 0 -2303314.187 19783780.207 15856435.859 10 0 59401 4500.00000 0 -2745600.917 17720681.419 18075592.544 10 0 59401 5400.00000 0 -3430100.452 15461357.704 19941754.870 10 0 59401 6300.00000 0 -4367786.558 13072986.750 21418683.705 10 0 59401 7200.00000 0 -5556801.028 10625287.556 22477809.235 10 0 59401 8100.00000 0 -6982342.858 8187745.243 23098775.282 10 0 59401 9000.00000 0 -8617117.741 5826867.236 23269816.611 10 0 59401 9900.00000 0 -10422327.464 3603586.132 22987963.559 10 0 59401 10800.00000 0 -12349155.991 1570917.203 22259072.027 10 0 59401 11700.00000 0 -14340688.267 -228033.192 21097680.485 10 0 59401 12600.00000 0 -16334179.878 -1761627.559 19526698.959 10 0 59401 13500.00000 0 -18263581.681 -3010763.742 17576938.130 10 0 59401 14400.00000 0 -20062213.448 -3969407.050 15286489.400 10 0 59401 15300.00000 0 -21665475.063 -4644569.692 12699969.409 10 0 59401 16200.00000 0 -23013482.891 -5055742.165 9867644.587 10 0 59401 17100.00000 0 -24053522.731 -5233803.730 6844453.192 10 0 59401 18000.00000 0 -24742218.689 -5219460.366 3688943.876 10 0 59401 18900.00000 0 -25047329.513 -5061277.586 462150.942 10 0 59401 19800.00000 0 -24949099.453 -4813391.786 -2773572.780 10 0 59401 20700.00000 0 -24441109.042 -4532996.400 -5955743.908 10 0 59401 21600.00000 0 -23530591.755 -4277707.987 -9022935.834 10 0 59401 22500.00000 0 -22238204.096 -4102921.872 -11915944.117 10 0 59401 23400.00000 0 -20597258.850 -4059267.076 -14578909.113 10 0 59401 24300.00000 0 -18652452.813 -4190266.088 -16960376.047 10 0 59401 25200.00000 0 -16458140.595 -4530296.616 -19014273.729 10 0 59401 26100.00000 0 -14076224.418 -5102940.252 -20700794.530 10 0 59401 27000.00000 0 -11573745.214 -5919787.401 -21987159.813 10 0 59401 27900.00000 0 -9020272.477 -6979749.539 -22848256.796 10 0 59401 28800.00000 0 -6485198.751 -8268909.400 -23267134.679 10 0 59401 29700.00000 0 -4035048.753 -9760918.004 -23235350.067 10 0 59401 30600.00000 0 -1730913.057 -11417925.147 -22753153.943 10 0 59401 31500.00000 0 373888.076 -13192007.995 -21829514.914 10 0 59401 32400.00000 0 2235814.011 -15027041.599 -20481976.167 10 0 59401 33300.00000 0 3822702.140 -16860936.379 -18736346.408 10 0 59401 34200.00000 0 5114887.640 -18628151.420 -16626228.174 10 0 59401 35100.00000 0 6105796.328 -20262379.992 -14192390.130 10 0 59401 36000.00000 0 6801984.127 -21699295.278 -11481993.314 10 0 59401 36900.00000 0 7222619.808 -22879240.414 -8547684.720 10 0 59401 37800.00000 0 7398431.579 -23749748.251 -5446574.873 10 0 59401 38700.00000 0 7370161.294 -24267782.386 -2239119.108 10 0 59401 39600.00000 0 7186591.740 -24401602.134 1012074.896 10 0 59401 40500.00000 0 6902231.507 -24132169.786 4243488.647 10 0 59401 41400.00000 0 6574757.379 -23454037.961 7391957.127 10 0 59401 42300.00000 0 6262325.230 -22375677.373 10395928.558 10 0 59401 43200.00000 0 6020866.460 -20919229.759 13196692.371 10 0 59401 44100.00000 0 5901487.743 -19119695.884 15739548.792 10 0 59401 45000.00000 0 5948087.279 -17023593.313 17974894.865 10 0 59401 45900.00000 0 6195290.934 -14687141.711 19859203.985 10 0 59401 46800.00000 0 6666797.397 -12174053.755 21355878.801 10 0 59401 47700.00000 0 7374203.140 -9553026.511 22435960.489 10 0 59401 48600.00000 0 8316356.797 -6895040.406 23078681.057 10 0 59401 49500.00000 0 9479269.392 -4270580.365 23271849.019 10 0 59401 50400.00000 0 10836582.744 -1746896.216 23012062.574 10 0 59401 51300.00000 0 12350574.549 614583.307 22304748.153 10 0 59401 52200.00000 0 13973655.980 2760576.115 21164025.813 10 0 59401 53100.00000 0 15650297.140 4647916.758 19612406.272 10 0 59401 54000.00000 0 17319298.208 6245091.603 17680327.571 10 0 59401 54900.00000 0 18916310.235 7533278.601 15405542.107 10 0 59401 55800.00000 0 20376499.731 8506852.012 12832367.390 10 0 59401 56700.00000 0 21637245.900 9173334.918 10010816.028 10 0 59401 57600.00000 0 22640758.659 9552805.152 6995622.300 10 0 59401 58500.00000 0 23336509.368 9676782.602 3845184.330 10 0 59401 59400.00000 0 23683374.381 9586646.954 620441.936 10 0 59401 60300.00000 0 23651403.706 9331653.832 -2616288.913 10 0 59401 61200.00000 0 23223142.561 8966633.242 -5802503.533 10 0 59401 62100.00000 0 22394452.112 8549466.894 -8876696.351 10 0 59401 63000.00000 0 21174795.956 8138449.545 -11779527.842 10 0 59401 63900.00000 0 19586980.710 7789643.893 -14454949.711 10 0 59401 64800.00000 0 17666360.980 7554338.670 -16851268.453 10 0 59401 65700.00000 0 15459540.569 7476715.185 -18922128.510 10 0 59401 66600.00000 0 13022622.071 7591819.168 -20627397.470 10 0 59401 67500.00000 0 10419075.145 7923922.476 -21933937.493 10 0 59401 68400.00000 0 7717309.201 8485343.580 -22816248.786 10 0 59401 69300.00000 0 4988048.449 9275777.348 -23256972.878 10 0 59401 70200.00000 0 2301615.525 10282164.135 -23247245.611 10 0 59401 71100.00000 0 -274765.903 11479106.316 -22786891.972 10 0 59401 72000.00000 0 -2679539.126 12829817.999 -21884457.382 10 0 59401 72900.00000 0 -4859147.246 14287571.528 -20557072.749 10 0 59401 73800.00000 0 -6770033.987 15797583.492 -18830153.413 10 0 59401 74700.00000 0 -8380228.362 17299263.972 -16736935.220 10 0 59401 75600.00000 0 -9670445.886 18728736.737 -14317854.211 10 0 59401 76500.00000 0 -10634658.650 20021525.671 -11619779.669 10 0 59401 77400.00000 0 -11280108.580 21115294.395 -8695113.811 10 0 59401 78300.00000 0 -11626761.882 21952522.716 -5600774.571 10 0 59401 79200.00000 0 -11706226.596 22483005.028 -2397081.080 10 0 59401 80100.00000 0 -11560178.611 22666062.545 853435.760 10 0 59401 81000.00000 0 -11238363.215 22472372.850 4087272.983 10 0 59401 81900.00000 0 -10796258.164 21885336.407 7241219.362 10 0 59401 82800.00000 0 -10292499.400 20901919.570 10253615.992 10 0 59401 83700.00000 0 -9786181.297 19532936.438 13065586.406 10 0 59401 84600.00000 0 -9334148.883 17802756.416 15622209.594 10 0 59401 85500.00000 0 -8988399.758 15748449.594 17873610.613 10 0 59402 0.00000 0 -8793708.326 13418406.579 19775945.770 10 0 59402 900.00000 0 -8785575.257 10870491.836 21292262.247 10 0 59402 1800.00000 0 -8988588.820 8169810.530 22393214.557 10 0 59402 2700.00000 0 -9415269.642 5386183.586 23057624.850 10 0 59402 3600.00000 0 -10065444.723 2591438.749 23272876.914 10 0 59402 4500.00000 0 -10926177.271 -143367.984 23035137.828 10 0 59402 5400.00000 0 -11972252.683 -2750684.236 22349405.039 10 0 59402 6300.00000 0 -13167198.250 -5169032.991 21229380.101 10 0 59402 7200.00000 0 -14464791.484 -7345318.339 19697173.752 10 0 59402 8100.00000 0 -15810991.812 -9236771.518 17782850.159 10 0 59402 9000.00000 0 -17146213.096 -10812459.215 15523820.943 10 0 59402 9900.00000 0 -18407840.773 -12054294.714 12964102.232 10 0 59402 10800.00000 0 -19532887.900 -12957513.566 10153450.153 10 0 59402 11700.00000 0 -20460679.217 -13530597.622 7146392.027 10 0 59402 12600.00000 0 -21135451.778 -13794653.981 4001172.222 10 0 59402 13500.00000 0 -21508764.659 -13782277.656 778632.680 10 0 59402 14400.00000 0 -21541618.519 -13535947.665 -2458950.972 10 0 59402 15300.00000 0 -21206197.928 -13106024.929 -5649056.274 10 0 59402 16200.00000 0 -20487165.067 -12548436.312 -8730102.205 10 0 59402 17100.00000 0 -19382451.700 -11922141.527 -11642617.601 10 0 59402 18000.00000 0 -17903516.750 -11286488.123 -14330368.826 10 0 59402 18900.00000 0 -16075058.431 -10698564.084 -16741426.747 10 0 59402 19800.00000 0 -13934191.801 -10210657.524 -18829154.212 10 0 59402 20700.00000 0 -11529124.196 -9867928.532 -20553096.388 10 0 59402 21600.00000 0 -8917381.160 -9706389.745 -21879758.065 10 0 59402 22500.00000 0 -6163653.645 -9751279.838 -22783253.669 10 0 59402 23400.00000 0 -3337352.811 -10015898.415 -23245817.662 10 0 59402 24300.00000 0 -509970.794 -10500952.300 -23258165.085 10 0 59402 25200.00000 0 2247645.816 -11194442.550 -22819694.304 10 0 59402 26100.00000 0 4867998.748 -12072099.555 -21938526.406 10 0 59402 27000.00000 0 7289506.325 -13098351.017 -20631378.433 10 0 59402 27900.00000 0 9458831.087 -14227785.320 -18923270.387 10 0 59402 28800.00000 0 11332869.570 -15407051.800 -16847069.151 10 0 59402 29700.00000 0 12880320.311 -16577120.402 -14442875.581 10 0 59402 30600.00000 0 14082763.092 -17675807.226 -11757264.417 10 0 59402 31500.00000 0 14935202.346 -18640460.087 -8842390.103 10 0 59402 32400.00000 0 15446050.248 -19410690.325 -5754974.842 10 0 59402 33300.00000 0 15636548.765 -19931033.939 -2555198.315 10 0 59402 34200.00000 0 15539654.185 -20153427.208 694488.604 10 0 59402 35100.00000 0 15198431.258 -20039389.142 3930601.679 10 0 59402 36000.00000 0 14664025.654 -19561815.258 7089886.504 10 0 59402 36900.00000 0 13993302.277 -18706303.765 10110579.842 10 0 59402 37800.00000 0 13246251.809 -17471955.517 12933641.803 10 0 59402 38700.00000 0 12483278.180 -15871612.076 15503932.235 10 0 59402 39600.00000 0 11762484.750 -13931520.907 17771305.898 10 0 59402 40500.00000 0 11137076.856 -11690441.762 19691603.334 10 0 59402 41400.00000 0 10652992.772 -9198232.562 21227516.960 10 0 59402 42300.00000 0 10346864.673 -6513975.623 22349315.051 10 0 59402 43200.00000 0 10244396.233 -3703724.441 23035409.912 10 0 59402 44100.00000 0 10359224.861 -837967.014 23272760.214 10 0 59402 45000.00000 0 10692315.281 2011086.798 23057101.210 10 0 59402 45900.00000 0 11231907.978 4772279.893 22393000.381 10 0 59402 46800.00000 0 11954022.316 7378228.813 21293739.587 10 0 59402 47700.00000 0 12823490.579 9767878.305 19781028.234 10 0 59402 48600.00000 0 13795477.040 11888784.915 17884555.143 10 0 59402 49500.00000 0 14817416.177 13699037.064 15641389.598 10 0 59402 50400.00000 0 15831287.124 15168734.676 13095244.706 10 0 59402 51300.00000 0 16776128.010 16280970.248 10295618.390 10 0 59402 52200.00000 0 17590684.519 17032274.108 7296829.199 10 0 59402 53100.00000 0 18216082.045 17432508.647 4156965.838 10 0 59402 54000.00000 0 18598410.373 17504219.085 936770.381 10 0 59402 54900.00000 0 18691113.917 17281470.266 -2301523.957 10 0 59402 55800.00000 0 18457088.873 16808219.827 -5495379.029 10 0 59402 56700.00000 0 17870400.890 16136296.611 -8583140.447 10 0 59402 57600.00000 0 16917552.474 15323069.002 -11505207.436 10 0 59402 58500.00000 0 15598247.742 14428900.082 -14205162.937 10 0 59402 59400.00000 0 13925622.479 13514494.933 -16630844.005 10 0 59402 60300.00000 0 11925928.998 12638249.597 -18735333.594 10 0 59402 61200.00000 0 9637687.325 11853711.053 -20477856.044 10 0 59402 62100.00000 0 7110335.674 11207253.112 -21824560.280 10 0 59402 63000.00000 0 4402433.320 10736064.533 -22749176.377 10 0 59402 63900.00000 0 1579487.388 10466533.245 -23233533.036 10 0 59402 64800.00000 0 -1288509.671 10413094.705 -23267925.653 10 0 59402 65700.00000 0 -4129732.831 10577593.879 -22851326.901 10 0 59402 66600.00000 0 -6873259.990 10949189.465 -21991434.160 10 0 59402 67500.00000 0 -9451778.645 11504806.910 -20704550.843 10 0 59402 68400.00000 0 -11804152.380 12210123.970 -19015301.444 10 0 59402 69300.00000 0 -13877740.535 13021050.247 -16956183.269 10 0 59402 70200.00000 0 -15630373.772 13885640.905 -14566960.973 10 0 59402 71100.00000 0 -17031901.729 14746365.846 -11893913.369 10 0 59402 72000.00000 0 -18065246.132 15542639.599 -8988945.422 10 0 59402 72900.00000 0 -18726913.307 16213505.074 -5908581.625 10 0 59402 73800.00000 0 -19026942.762 16700356.645 -2712860.013 10 0 59402 74700.00000 0 -18988292.642 16949585.339 535850.978 10 0 59402 75600.00000 0 -18645687.419 16915031.399 3774088.420 10 0 59402 76500.00000 0 -18043976.705 16560137.219 6938557.484 10 0 59402 77400.00000 0 -17236075.755 15859706.245 9967393.484 10 0 59402 78300.00000 0 -16280576.684 14801190.480 12801396.108 10 0 59402 79200.00000 0 -15239134.057 13385449.750 15385209.091 10 0 59402 80100.00000 0 -14173738.257 11626949.123 17668419.894 10 0 59402 81000.00000 0 -13143994.758 9553385.462 19606556.133 10 0 59402 81900.00000 0 -12204526.662 7204758.981 21161958.178 10 0 59402 82800.00000 0 -11402611.960 4631929.794 22304510.416 10 0 59402 83700.00000 0 -10776156.048 1894721.401 23012217.297 10 0 59402 84600.00000 0 -10352084.831 -940347.924 23271613.961 10 0 59402 85500.00000 0 -10145225.048 -3802609.354 23078004.954 10 0 59403 0.00000 0 -10157716.982 -6619956.072 22435528.446 10 0 59403 900.00000 0 -10378981.983 -9321610.593 21357046.679 10 0 59403 1800.00000 0 -10786242.612 -11840831.798 19863867.372 10 0 59403 2700.00000 0 -11345571.832 -14117449.662 17985303.111 10 0 59403 3600.00000 0 -12013423.256 -16100124.948 15758079.494 10 0 59403 4500.00000 0 -12738576.806 -17748241.454 13225604.832 10 0 59403 5400.00000 0 -13464416.153 -19033355.649 10437116.701 10 0 59403 6300.00000 0 -14131441.537 -19940146.477 7446722.428 10 0 59403 7200.00000 0 -14679912.320 -20466829.104 4312352.351 10 0 59403 8100.00000 0 -15052508.874 -20625018.445 1094645.770 10 0 59403 9000.00000 0 -15196903.078 -20439050.808 -2144209.577 10 0 59403 9900.00000 0 -15068130.924 -19944793.883 -5341663.057 10 0 59403 10800.00000 0 -14630669.133 -19187996.037 -8435990.203 10 0 59403 11700.00000 0 -13860129.952 -18222244.242 -11367463.970 10 0 59403 12600.00000 0 -12744504.001 -17106615.617 -14079487.221 10 0 59403 13500.00000 0 -11284899.362 -15903119.747 -16519666.441 10 0 59403 14400.00000 0 -9495745.457 -14674037.159 -18640807.742 10 0 59403 15300.00000 0 -7404451.871 -13479263.511 -20401817.374 10 0 59403 16200.00000 0 -5050534.185 -12373768.780 -21768490.718 10 0 59403 17100.00000 0 -2484240.310 -11405276.181 -22714175.296 10 0 59403 18000.00000 0 235268.764 -10612256.935 -23220295.280 10 0 59403 18900.00000 0 3042111.789 -10022324.432 -23276727.064 10 0 59403 19800.00000 0 5866166.114 -9651095.445 -22882017.692 10 0 59403 20700.00000 0 8635732.614 -9501567.288 -22043440.373 10 0 59403 21600.00000 0 11280278.566 -9564038.907 -20776883.946 10 0 59403 22500.00000 0 13733146.112 -9816581.521 -19106576.018 10 0 59403 23400.00000 0 15934114.228 -10226041.590 -17064642.525 10 0 59403 24300.00000 0 17831707.253 -10749536.302 -14690509.728 10 0 59403 25200.00000 0 19385152.503 -11336380.567 -12030157.925 10 0 59403 26100.00000 0 20565903.327 -11930365.492 -9135239.649 10 0 59403 27000.00000 0 21358661.727 -12472292.427 -6062078.398 10 0 59403 27900.00000 0 21761855.504 -12902654.778 -2870567.015 10 0 59403 28800.00000 0 21787548.008 -13164352.433 377012.199 10 0 59403 29700.00000 0 21460783.155 -13205321.362 3617221.355 10 0 59403 30600.00000 0 20818392.917 -12980963.924 6786728.821 10 0 59403 31500.00000 0 19907318.178 -12456273.661 9823571.847 10 0 59403 32400.00000 0 18782515.319 -11607561.350 12668392.718 10 0 59403 33300.00000 0 17504539.115 -10423706.512 15265621.647 10 0 59403 34200.00000 0 16136906.708 -8906879.377 17564580.897 10 0 59403 35100.00000 0 14743356.745 -7072701.561 19520486.759 10 0 59403 36000.00000 0 13385121.909 -4949838.266 21095328.647 10 0 59403 36900.00000 0 12118331.930 -2579039.632 22258607.658 10 0 59403 37800.00000 0 10991657.721 -11672.540 22987920.515 10 0 59403 38700.00000 0 10044296.053 2692194.227 23269378.510 10 0 59403 39600.00000 0 9304378.879 5466069.693 23097854.769 10 0 59403 40500.00000 0 8787872.396 8239588.741 22477057.017 10 0 59403 41400.00000 0 8498009.681 10941221.336 21419426.577 10 0 59403 42300.00000 0 8425277.716 13501029.631 19945867.778 10 0 59403 43200.00000 0 8547956.098 15853358.693 18085315.141 10 0 59403 44100.00000 0 8833181.648 17939350.099 15874148.582 10 0 59403 45000.00000 0 9238491.393 19709175.699 13355469.515 10 0 59403 45900.00000 0 9713776.832 21123901.166 10578252.975 10 0 59403 46800.00000 0 10203565.853 22156904.674 7596392.815 10 0 59403 47700.00000 0 10649535.654 22794794.665 4467658.702 10 0 59403 48600.00000 0 10993151.051 23037791.477 1252584.833 10 0 59403 49500.00000 0 11178317.956 22899559.571 -1986688.848 10 0 59403 50400.00000 0 11153941.634 22406499.472 -5187601.486 10 0 59403 51300.00000 0 10876283.656 21596530.400 -8288360.701 10 0 59403 52200.00000 0 10311019.925 20517415.082 -11229115.200 10 0 59403 53100.00000 0 9434914.532 19224696.521 -13953089.607 10 0 59403 54000.00000 0 8237039.839 17779332.046 -16407661.509 10 0 59403 54900.00000 0 6719491.512 16245121.971 -18545361.660 10 0 59403 55800.00000 0 4897567.729 14686038.417 -20324779.566 10 0 59403 56700.00000 0 2799403.189 13163563.861 -21711358.267 10 0 59403 57600.00000 0 465070.611 11734148.647 -22678063.820 10 0 59403 58500.00000 0 -2054816.025 10446892.167 -23205916.815 10 0 59403 59400.00000 0 -4700941.987 9341543.622 -23284375.406 10 0 59403 60300.00000 0 -7407503.230 8446905.614 -22911561.539 10 0 59403 61200.00000 0 -10104700.219 7779707.919 -22094324.459 10 0 59403 62100.00000 0 -12721413.440 7343999.761 -20848138.291 10 0 59403 63000.00000 0 -15187951.541 7131087.832 -19196833.198 10 0 59403 63900.00000 0 -17438758.804 7120024.848 -17172162.808 10 0 59403 64800.00000 0 -19414969.405 7278630.291 -14813213.689 10 0 59403 65700.00000 0 -21066701.057 7565002.321 -12165666.028 10 0 59403 66600.00000 0 -22354990.508 7929458.594 -9280918.100 10 0 59403 67500.00000 0 -23253287.723 8316824.644 -6215090.400 10 0 59403 68400.00000 0 -23748443.682 8668972.802 -3027928.430 10 0 59403 69300.00000 0 -23841147.995 8927502.966 218373.917 10 0 59403 70200.00000 0 -23545796.167 9036449.483 3460406.189 10 0 59403 71100.00000 0 -22889791.017 8944896.594 6634802.470 10 0 59403 72000.00000 0 -21912307.564 8609388.366 9679504.588 10 0 59403 72900.00000 0 -20662574.287 7996027.654 12535000.153 10 0 59403 73800.00000 0 -19197744.918 7082172.139 15145508.625 10 0 59403 74700.00000 0 -17580452.866 5857653.192 17460089.791 10 0 59403 75600.00000 0 -15876154.025 4325464.318 19433651.195 10 0 59403 76500.00000 0 -14150372.589 2501889.185 21027833.647 10 0 59403 77400.00000 0 -12465968.106 416063.871 22211756.988 10 0 59403 78300.00000 0 -10880540.358 -1891007.628 22962611.868 10 0 59403 79200.00000 0 -9444081.818 -4367942.125 23266086.966 10 0 59403 80100.00000 0 -8196975.995 -6954906.299 23116624.774 10 0 59403 81000.00000 0 -7168424.328 -9585903.947 22517502.954 10 0 59403 81900.00000 0 -6375365.318 -12191324.756 21480741.790 10 0 59403 82800.00000 0 -5821928.349 -14700647.450 20026841.758 10 0 59403 83700.00000 0 -5499441.642 -17045184.620 18184358.431 10 0 59403 84600.00000 0 -5386990.495 -19160755.603 15989324.798 10 0 59403 85500.00000 0 -5452499.069 -20990177.339 13484533.804 99